TimeCDT,TemperatureF,Dew PointF,Humidity,Sea Level PressureIn,VisibilityMPH,Wind Direction,Wind SpeedMPH,Gust SpeedMPH,PrecipitationIn,Events,Conditions,WindDirDegrees,DateUTC
12:53 AM,70.0,66.9,90,30.06,5.0,Calm,Calm,-,N/A,,Clear,0,2013-04-28 05:53:00
1:29 AM,69.8,68.0,94,30.05,6.0,SE,3.5,-,N/A,,Scattered Clouds,140,2013-04-28 06:29:00
1:38 AM,69.8,68.0,94,30.04,5.0,South,3.5,-,N/A,,Mostly Cloudy,170,2013-04-28 06:38:00
1:53 AM,71.1,69.1,93,30.05,5.0,Calm,Calm,-,N/A,,Overcast,0,2013-04-28 06:53:00
2:53 AM,72.0,69.1,91,30.05,6.0,Calm,Calm,-,N/A,,Overcast,0,2013-04-28 07:53:00
3:53 AM,72.0,69.1,91,30.04,5.0,Calm,Calm,-,N/A,,Overcast,0,2013-04-28 08:53:00
4:53 AM,71.1,69.1,93,30.02,5.0,ESE,3.5,-,N/A,,Overcast,120,2013-04-28 09:53:00
5:37 AM,71.6,69.8,94,30.02,5.0,SSE,4.6,-,N/A,,Overcast,150,2013-04-28 10:37:00
5:50 AM,71.6,69.8,94,30.02,5.0,South,4.6,-,N/A,,Mostly Cloudy,170,2013-04-28 10:50:00
5:53 AM,72.0,70.0,93,30.02,5.0,SSE,5.8,-,N/A,,Mostly Cloudy,160,2013-04-28 10:53:00
6:17 AM,71.6,69.8,94,30.03,5.0,SSE,6.9,-,N/A,,Overcast,160,2013-04-28 11:17:00
6:53 AM,72.0,70.0,93,30.03,4.0,SSE,6.9,-,N/A,,Overcast,160,2013-04-28 11:53:00
7:35 AM,71.6,69.8,94,30.03,5.0,South,8.1,-,N/A,,Mostly Cloudy,170,2013-04-28 12:35:00
7:53 AM,73.4,69.8,88,30.03,6.0,South,5.8,-,N/A,,Partly Cloudy,190,2013-04-28 12:53:00
8:53 AM,75.0,70.0,84,30.04,8.0,South,5.8,-,N/A,,Scattered Clouds,190,2013-04-28 13:53:00
9:27 AM,75.2,69.8,83,30.04,8.0,South,10.4,-,N/A,,Mostly Cloudy,180,2013-04-28 14:27:00
9:53 AM,75.0,70.0,84,30.03,7.0,South,8.1,-,N/A,,Overcast,190,2013-04-28 14:53:00
10:06 AM,75.2,69.8,83,30.03,8.0,SSW,8.1,-,N/A,,Overcast,210,2013-04-28 15:06:00
10:53 AM,75.9,70.0,82,30.04,8.0,South,5.8,-,N/A,,Mostly Cloudy,190,2013-04-28 15:53:00
11:53 AM,75.0,70.0,84,30.03,8.0,SSE,12.7,-,N/A,,Mostly Cloudy,160,2013-04-28 16:53:00
12:30 PM,75.2,69.8,83,30.03,8.0,South,6.9,-,N/A,,Mostly Cloudy,180,2013-04-28 17:30:00
12:44 PM,75.2,69.8,83,30.02,7.0,South,10.4,-,N/A,,Mostly Cloudy,180,2013-04-28 17:44:00
12:53 PM,75.0,70.0,84,30.01,7.0,South,6.9,-,N/A,,Mostly Cloudy,170,2013-04-28 17:53:00
1:00 PM,75.2,69.8,83,30.01,7.0,South,9.2,-,N/A,,Scattered Clouds,170,2013-04-28 18:00:00
1:18 PM,73.4,69.8,88,30.02,7.0,South,10.4,-,N/A,Thunderstorm,Thunderstorm,170,2013-04-28 18:18:00
1:27 PM,73.4,69.8,88,30.02,7.0,South,8.1,-,N/A,Rain-Thunderstorm,Light Thunderstorms and Rain,170,2013-04-28 18:27:00
1:53 PM,66.0,63.0,90,30.02,7.0,North,4.6,-,N/A,Rain-Thunderstorm,Thunderstorms and Rain,10,2013-04-28 18:53:00
2:09 PM,66.2,64.4,94,30.02,10.0,North,9.2,-,0.00,,Mostly Cloudy,350,2013-04-28 19:09:00
2:53 PM,70.0,64.9,84,29.99,10.0,NE,6.9,-,0.00,,Scattered Clouds,40,2013-04-28 19:53:00
3:53 PM,73.0,63.0,71,29.98,10.0,Calm,Calm,-,0.00,,Mostly Cloudy,0,2013-04-28 20:53:00
4:53 PM,73.0,64.0,73,29.96,10.0,NNE,3.5,-,N/A,,Overcast,20,2013-04-28 21:53:00
5:53 PM,72.0,64.9,78,29.96,10.0,Calm,Calm,-,N/A,,Scattered Clouds,0,2013-04-28 22:53:00
6:53 PM,72.0,64.9,78,29.95,10.0,NNE,3.5,-,N/A,,Scattered Clouds,30,2013-04-28 23:53:00
7:53 PM,71.1,64.0,78,29.97,10.0,East,3.5,-,N/A,,Overcast,80,2013-04-29 00:53:00
8:53 PM,70.0,66.0,87,29.99,10.0,NNE,3.5,-,N/A,,Overcast,30,2013-04-29 01:53:00
9:53 PM,69.1,63.0,81,30.00,7.0,NW,5.8,-,0.01,Rain,Light Rain,320,2013-04-29 02:53:00
10:53 PM,66.0,63.0,90,29.98,10.0,Calm,Calm,-,0.01,Rain,Light Rain,0,2013-04-29 03:53:00
11:53 PM,64.9,61.0,87,30.00,10.0,West,3.5,-,0.00,Rain,Light Rain,270,2013-04-29 04:53:00